Location: Rounton
(54.4000°N, 1.3500°W)
Time: 08:36:31
(UTC+00:00)

Vanguard 1 Rocket - Pass Details

Date: 07 December 2021
Orbit: 651 x 4224 km, 34.3° (Epoch: 19 January)

Event Time Altitude Azimuth Distance (km) Brightness Sun altitude
Rises 04:56:44 0° 252° (WSW) 5,177 - -26.9°
Reaches altitude 10° 04:59:58 10° 243° (WSW) 4,591 - -26.4°
Exits shadow 05:03:23 21° 231° (SW) 4,173 10.3 -25.9°
Maximum altitude 05:11:53 35° 185° (S) 4,202 10.7 -24.7°
Drops below altitude 10° 05:30:44 10° 131° (SE) 7,196 12.7 -22.0°
Sets 05:37:41 0° 124° (SE) 8,425 13.5 -21.0°
